Volver al catálogo

CZ-6A DEB

ActivoPO
NORAD 60660·DEBRIS·🇨🇳 China

Lanzado Aug 6, 2024 desde Taiyuan Satellite Launch Center

Loading…

Próximos Pases (próximas 24 horas)

TLE

ActualizadoSource: Space-Track

Época: Sep 14, 2026, 07:09 UTC

1 60660U 24140BM  26257.29847650  .00003349  00000-0  61739-3 0  9990
2 60660  88.9904 258.8812 0132135 331.8006  27.6092 14.59781871111525

Sigue CZ-6A DEB en tiempo real con AllMySat

Download on the App Store